Location: Alberta Star Party
(51.6612°N, 112.9089°W)
Time: 03:23:36
(UTC-06:00)

Amateur Radio Satellites - All Passes

Search period start: 31 July 2015 02:53
Search period end: 01 August 2015 02:53
Location: Alberta Star Party, 51.6612°N, 112.9089°W

Satellite Date Start Highest point End Downlink Frequencies (MHz)
Time Altitude Azimuth
DUCHIFAT 1 31 Jul 02:56:18 02:57:41 11° 306° (NW) 02:58:54 145.980
QB50P1 31 Jul 02:58:56 02:59:52 11° 307° (NW) 03:00:39 145.935-145.965
NANOSAT C BR1 31 Jul 03:00:56 03:01:38 10° 307° (NW) 03:02:10 145.865
JAS-2 31 Jul 03:09:26 03:14:29 19° 80° (E) 03:19:53 435.910
MOZHAYETS 4 31 Jul 03:09:56 03:11:33 12° 53° (NE) 03:13:21
SWISSCUBE 31 Jul 03:10:14 03:14:33 32° 266° (W) 03:18:50 437.505
O/OREOS (USA 219) 31 Jul 03:16:15 03:20:44 85° 118° (ESE) 03:25:18 437.305
Cosmos 2504 31 Jul 03:24:17 03:31:05 49° 89° (E) 03:38:28 435.465 / 435.565
Gurwin Techsat 1B 31 Jul 03:29:13 03:34:08 37° 95° (E) 03:39:04 435.225
ITUPSAT 1 31 Jul 03:31:08 03:35:03 24° 269° (W) 03:38:56 437.325
BEESAT 3 31 Jul 03:31:26 03:34:37 21° 335° (NNW) 03:37:46 437.485
STARS 31 Jul 03:38:19 03:42:39 67° 72° (ENE) 03:47:02 437.465
ITAMSAT 1 31 Jul 03:58:44 04:03:51 55° 100° (E) 04:08:56 435.822/435.867
KKS-1 31 Jul 04:02:10 04:06:27 48° 260° (W) 04:10:47 437.445
AIST 2 31 Jul 04:12:55 04:16:44 30° 328° (NNW) 04:20:30 435.215
ISS 31 Jul 04:16:25 04:19:19 29° 210° (SSW) 04:22:13 145.825
Oscar 19 31 Jul 04:20:08 04:24:50 36° 297° (WNW) 04:29:31 437.125/150
YUBILEINY 31 Jul 04:21:58 04:28:20 21° 312° (NW) 04:34:27 435.215
BEESAT 2 31 Jul 04:28:49 04:31:21 15° 346° (NNW) 04:33:52 435.950
MOZHAYETS 4 31 Jul 04:43:22 04:47:57 64° 72° (ENE) 04:52:35
DANDE 31 Jul 04:51:30 04:52:49 12° 94° (E) 04:54:10 436.750
JAS-2 31 Jul 04:53:08 05:00:54 72° 102° (ESE) 05:08:46 435.910
HORYU 2 31 Jul 04:53:58 04:57:55 29° 94° (E) 05:01:54 437.375
O/OREOS (USA 219) 31 Jul 04:57:30 05:00:49 19° 319° (NW) 05:04:05 437.305
CUBESAT XI-V 31 Jul 04:59:48 05:02:02 14° 55° (NE) 05:04:26 437.345
RS-15 31 Jul 05:02:15 05:13:22 52° 24° (NNE) 05:25:03 29.354- 29.394
AO-7 31 Jul 05:02:44 05:10:30 41° 97° (E) 05:18:17 29.400- 29.500
Gurwin Techsat 1B 31 Jul 05:09:13 05:14:12 41° 295° (WNW) 05:19:08 435.225
GONETS M04 31 Jul 05:10:44 05:15:11 16° 71° (ENE) 05:20:03
BEESAT 3 31 Jul 05:11:58 05:13:57 13° 358° (N) 05:15:55 437.485
Cosmos 2504 31 Jul 05:16:38 05:23:30 43° 294° (WNW) 05:30:49 435.465 / 435.565
STARS 31 Jul 05:16:43 05:19:37 17° 272° (W) 05:22:24 437.465
CUSAT 1 31 Jul 05:18:50 05:21:30 44° 100° (E) 05:24:01 437.405
ITAMSAT 1 31 Jul 05:38:42 05:43:07 28° 300° (WNW) 05:47:25 435.822/435.867
AIST 2 31 Jul 05:54:04 05:56:32 15° 351° (N) 05:58:58 435.215
BEESAT 2 31 Jul 06:08:41 06:10:56 14° 9° (N) 06:13:12 435.950
MOZHAYETS 4 31 Jul 06:22:14 06:25:39 19° 272° (W) 06:28:58
HORYU 2 31 Jul 06:30:26 06:34:40 40° 294° (WNW) 06:38:52 437.375
DANDE 31 Jul 06:33:08 06:35:47 27° 288° (WNW) 06:38:09 436.750
CUBESAT XI-V 31 Jul 06:34:05 06:38:47 75° 73° (ENE) 06:43:28 437.345
PRISM 31 Jul 06:34:32 06:37:53 24° 62° (ENE) 06:41:17 437.425
STRAND 1 31 Jul 06:36:09 06:40:44 35° 63° (ENE) 06:45:24 437.568
JAS-2 31 Jul 06:38:40 06:45:29 36° 302° (WNW) 06:52:21 435.910
BEESAT 3 31 Jul 06:50:23 06:53:20 19° 22° (NNE) 06:56:18 437.485
AO-7 31 Jul 06:55:32 07:03:44 61° 299° (WNW) 07:11:50 29.400- 29.500
CUTE-I 31 Jul 06:57:19 07:01:26 23° 90° (E) 07:05:38 437.470
GONETS M04 31 Jul 07:01:52 07:10:24 64° 93° (E) 07:18:58
RS-15 31 Jul 07:15:17 07:26:58 82° 232° (SW) 07:39:07 29.354- 29.394
Cosmos 2504 31 Jul 07:15:44 07:18:32 12° 322° (NW) 07:21:02 435.465 / 435.565
AIST 2 31 Jul 07:33:55 07:36:39 16° 15° (NNE) 07:39:24 435.215
Cosmos 2499 31 Jul 07:35:27 07:41:24 27° 80° (E) 07:47:55 435.465 / 435.565
Cubesat XI-IV 31 Jul 07:40:26 07:45:36 48° 99° (E) 07:50:46 437.490
BEESAT 2 31 Jul 07:46:33 07:50:11 29° 32° (NNE) 07:53:49 435.950
AUBIESAT-1 31 Jul 08:04:17 08:06:28 14° 46° (NE) 08:08:51 437.475
PRISM 31 Jul 08:09:03 08:13:06 46° 261° (W) 08:17:09 437.425
CUBESAT XI-V 31 Jul 08:13:46 08:16:49 17° 273° (W) 08:19:43 437.345
STRAND 1 31 Jul 08:15:00 08:19:53 42° 262° (W) 08:24:48 437.568
JAS-2 31 Jul 08:25:51 08:28:34 12° 324° (NW) 08:30:59 435.910
BEESAT 3 31 Jul 08:27:57 08:32:01 63° 44° (NE) 08:36:01 437.485
CUTE-I 31 Jul 08:36:43 08:42:02 66° 290° (WNW) 08:47:18 437.470
AO-7 31 Jul 08:49:08 08:55:04 22° 322° (NW) 09:00:48 29.400- 29.500
GONETS M04 31 Jul 08:59:52 09:07:53 38° 298° (WNW) 09:15:49
BRITE-PL 31 Jul 09:00:25 09:04:28 40° 98° (E) 09:08:46 437.365/2234.400
M-CUBED/EXP-1 PRIME 31 Jul 09:06:05 09:10:01 43° 61° (ENE) 09:14:19 437.505
PCSat 31 Jul 09:09:39 09:12:03 13° 105° (ESE) 09:14:43 145.827
DOVE 4 31 Jul 09:10:27 09:13:58 22° 91° (E) 09:17:44 437.250
AIST 2 31 Jul 09:12:14 09:16:16 41° 38° (NE) 09:20:15 435.215
GOMX 1 31 Jul 09:16:32 09:20:38 37° 97° (E) 09:24:59 467.674
Cubesat XI-IV 31 Jul 09:20:50 09:25:35 32° 299° (WNW) 09:30:14 437.490
BEESAT 2 31 Jul 09:24:27 09:28:30 56° 234° (SW) 09:32:27 435.950
Cosmos 2499 31 Jul 09:26:15 09:33:45 77° 283° (WNW) 09:41:57 435.465 / 435.565
CINEMA 3 31 Jul 09:27:49 09:30:45 17° 87° (E) 09:33:55 145.822/145.860
RS-15 31 Jul 09:28:32 09:38:02 29° 255° (WSW) 09:47:23 29.354- 29.394
AUBIESAT-1 31 Jul 09:36:14 09:40:22 71° 67° (ENE) 09:44:52 437.475
HO-68 31 Jul 09:40:50 09:47:32 40° 96° (E) 09:54:15 435.675
UNISAT 6 31 Jul 09:44:02 09:47:03 19° 58° (ENE) 09:50:13 437.425
COMPASS 1 31 Jul 09:52:02 09:55:40 27° 93° (E) 09:59:20 437.405
UWE-3 31 Jul 09:53:11 09:54:43 12° 83° (E) 09:56:30 435.000/436.395/437.385
POLYITAN 1 31 Jul 09:53:44 09:54:15 10° 53° (NE) 09:54:56 437.675
SO-50 31 Jul 09:55:35 09:58:56 20° 114° (ESE) 10:02:28 436.795
O/OREOS (USA 219) 31 Jul 10:03:14 10:05:49 15° 35° (NE) 10:08:29 437.305
SEEDS 31 Jul 10:05:08 10:09:15 44° 98° (E) 10:13:21 437.485
CUBEBUG 2 31 Jul 10:05:20 10:08:32 19° 89° (E) 10:11:56 437.445
CUTE 1.7 + AOD 2 31 Jul 10:06:18 10:10:35 56° 100° (E) 10:14:48 437.475
BEESAT 3 31 Jul 10:06:32 10:09:36 21° 244° (WSW) 10:12:35 437.485
Oscar 11 31 Jul 10:07:25 10:10:19 18° 88° (E) 10:13:20 145.826/435.025
POPSAT HIP 1 31 Jul 10:09:28 10:11:33 14° 56° (ENE) 10:13:46 437.405
CANX-2 31 Jul 10:14:31 10:18:51 74° 102° (ESE) 10:23:09 2200.000
QB50P2 31 Jul 10:16:19 10:18:53 16° 58° (ENE) 10:21:32 145.880/145.840
CUTE-I 31 Jul 10:18:21 10:21:15 15° 310° (NW) 10:23:57 437.470
BUGSAT 1 31 Jul 10:19:57 10:20:56 11° 55° (NE) 10:22:05 437.445
TIGRISAT 31 Jul 10:26:28 10:30:32 39° 66° (ENE) 10:34:43 435.000
YUBILEINY 31 Jul 10:27:34 10:34:24 25° 52° (NE) 10:41:27 435.215
DELFI C3 31 Jul 10:27:46 10:30:35 18° 89° (E) 10:33:27 145.870
ANTELSAT 31 Jul 10:27:46 10:31:52 41° 68° (ENE) 10:36:08 437.575/2403.000
AAUSAT CUBESAT 2 31 Jul 10:34:03 10:38:14 60° 101° (E) 10:42:23 437.432
BRITE-PL 31 Jul 10:39:18 10:42:56 27° 295° (WNW) 10:46:42 437.365/2234.400
DUCHIFAT 1 31 Jul 10:41:02 10:44:22 24° 63° (ENE) 10:47:48 145.980
M-CUBED/EXP-1 PRIME 31 Jul 10:41:27 10:45:00 27° 262° (W) 10:48:46 437.505
AO-7 31 Jul 10:43:06 10:44:43 11° 350° (N) 10:46:14 29.400- 29.500
QB50P1 31 Jul 10:43:25 10:46:52 26° 64° (ENE) 10:50:25 145.935-145.965
NANOSAT C BR1 31 Jul 10:45:01 10:48:30 26° 63° (ENE) 10:52:03 145.865
DOVE 4 31 Jul 10:47:39 10:52:02 53° 289° (WNW) 10:56:39 437.250
PCSat 31 Jul 10:49:14 10:54:37 70° 123° (ESE) 11:00:03 145.827
AIST 2 31 Jul 10:50:55 10:54:48 36° 238° (WSW) 10:58:36 435.215
GOMX 1 31 Jul 10:54:52 10:58:46 31° 294° (WNW) 11:02:49 467.674
CINEMA 3 31 Jul 11:03:54 11:08:30 74° 285° (WNW) 11:13:17 145.822/145.860
GONETS M04 31 Jul 11:05:15 11:08:11 12° 327° (NNW) 11:10:46
ZACube-1 31 Jul 11:05:51 11:10:08 41° 97° (E) 11:14:29 437.345
AUBIESAT-1 31 Jul 11:12:56 11:15:42 17° 268° (W) 11:18:27 437.475
Cosmos 2491 31 Jul 11:13:20 11:17:07 14° 70° (ENE) 11:21:25 435.465 / 435.565
UNISAT 6 31 Jul 11:19:01 11:23:22 69° 258° (WSW) 11:27:52 437.425
Cosmos 2499 31 Jul 11:22:51 11:28:39 22° 310° (NW) 11:34:33 435.465 / 435.565
POLYITAN 1 31 Jul 11:25:13 11:29:22 62° 72° (ENE) 11:33:33 437.675
UWE-3 31 Jul 11:27:28 11:32:04 80° 105° (ESE) 11:36:43 435.000/436.395/437.385
COMPASS 1 31 Jul 11:27:29 11:31:26 38° 293° (WNW) 11:35:20 437.405
FUNcube-1 31 Jul 11:27:54 11:32:23 63° 101° (ESE) 11:36:55 145.935
HO-68 31 Jul 11:28:33 11:35:31 54° 297° (WNW) 11:42:27 435.675
SO-50 31 Jul 11:34:05 11:38:56 84° 314° (NW) 11:43:55 436.795
CUBEBUG 2 31 Jul 11:41:07 11:45:40 65° 287° (WNW) 11:50:20 437.445
SEEDS 31 Jul 11:41:18 11:44:51 25° 297° (WNW) 11:48:17 437.485
O/OREOS (USA 219) 31 Jul 11:41:39 11:46:13 63° 58° (ENE) 11:50:46 437.305
POPSAT HIP 1 31 Jul 11:42:37 11:46:50 89° 66° (ENE) 11:51:04 437.405
Oscar 11 31 Jul 11:42:37 11:46:59 64° 288° (WNW) 11:51:17 145.826/435.025
AISAT 31 Jul 11:42:46 11:45:55 19° 90° (E) 11:49:09 437.250
CUTE 1.7 + AOD 2 31 Jul 11:42:52 11:46:10 21° 299° (WNW) 11:49:22 437.475
UKube-1 31 Jul 11:44:05 11:47:45 27° 94° (E) 11:51:27 .
QB50P2 31 Jul 11:50:04 11:54:16 76° 257° (WSW) 11:58:31 145.880/145.840
CANX-2 31 Jul 11:51:26 11:54:19 17° 301° (WNW) 11:57:03 2200.000
BUGSAT 1 31 Jul 11:51:42 11:55:44 72° 73° (ENE) 11:59:46 437.445
CUBEBUG 1 31 Jul 12:00:02 12:02:47 17° 88° (E) 12:05:40 437.445
HUMSAT D 31 Jul 12:00:14 12:04:31 60° 101° (E) 12:08:49 437.325/437.525
50 SAT 31 Jul 12:01:31 12:05:04 30° 95° (E) 12:08:38 437.505
DELFI C3 31 Jul 12:02:00 12:06:00 54° 289° (WNW) 12:09:57 145.870
TIGRISAT 31 Jul 12:03:35 12:07:24 28° 267° (W) 12:11:16 435.000
ANTELSAT 31 Jul 12:05:04 12:08:50 27° 268° (W) 12:12:39 437.575/2403.000
AAUSAT CUBESAT 2 31 Jul 12:10:24 12:13:29 19° 299° (WNW) 12:16:26 437.432
DX 1 31 Jul 12:10:27 12:14:42 50° 100° (E) 12:18:56 434.975-435.025
DUCHIFAT 1 31 Jul 12:15:56 12:19:58 45° 261° (W) 12:24:01 145.980
QB50P1 31 Jul 12:18:35 12:22:35 41° 262° (W) 12:26:36 145.935-145.965
NANOSAT C BR1 31 Jul 12:20:13 12:24:11 40° 262° (W) 12:28:10 145.865
VELOX 1 31 Jul 12:21:27 12:25:38 40° 98° (E) 12:29:49 145.980
YUBILEINY 31 Jul 12:24:00 12:32:53 82° 78° (ENE) 12:41:45 435.215
Oscar 19 31 Jul 12:25:40 12:29:13 20° 56° (NE) 12:32:54 437.125/150
ESTCUBE 1 31 Jul 12:29:36 12:33:47 36° 96° (E) 12:37:57 437.505/2401.250
AO-7 31 Jul 12:30:51 12:33:44 12° 19° (NNE) 12:36:49 29.400- 29.500
PCSat 31 Jul 12:33:36 12:38:30 32° 325° (NW) 12:43:23 145.827
SPROUT 31 Jul 12:39:46 12:42:00 14° 86° (E) 12:44:24 437.525
ZACube-1 31 Jul 12:42:26 12:46:23 30° 295° (WNW) 12:50:19 437.345
CINEMA 3 31 Jul 12:42:45 12:45:03 13° 304° (NW) 12:47:13 145.822/145.860
TISAT 1 31 Jul 12:55:23 12:57:06 12° 86° (E) 12:59:00 437.305
Cosmos 2504 31 Jul 13:02:53 13:09:35 27° 57° (ENE) 13:16:42 435.465 / 435.565
POLYITAN 1 31 Jul 13:02:54 13:05:44 17° 272° (W) 13:08:27 437.675
Cosmos 2491 31 Jul 13:03:43 13:12:12 59° 92° (E) 13:20:44 435.465 / 435.565
FUNcube-1 31 Jul 13:04:57 13:08:20 21° 299° (WNW) 13:11:40 145.935
UWE-3 31 Jul 13:05:03 13:08:05 18° 301° (WNW) 13:11:04 435.000/436.395/437.385
AIST 1 31 Jul 13:08:14 13:12:33 68° 98° (E) 13:16:52
SO-50 31 Jul 13:15:58 13:20:10 27° 336° (NNW) 13:24:24 436.795
HO-68 31 Jul 13:17:33 13:21:53 17° 319° (NW) 13:26:01 435.675
Gurwin Techsat 1B 31 Jul 13:18:00 13:21:39 20° 55° (NE) 13:25:26 435.225
AISAT 31 Jul 13:18:32 13:22:54 59° 289° (WNW) 13:27:13 437.250
CUBEBUG 2 31 Jul 13:19:48 13:21:37 12° 306° (NW) 13:23:16 437.445
UKube-1 31 Jul 13:19:57 13:24:01 41° 293° (WNW) 13:28:04 .
Oscar 11 31 Jul 13:21:06 13:22:22 11° 307° (NW) 13:23:27 145.826/435.025
POPSAT HIP 1 31 Jul 13:21:43 13:23:24 12° 275° (W) 13:24:54 437.405
O/OREOS (USA 219) 31 Jul 13:21:52 13:25:15 20° 257° (WSW) 13:28:32 437.305
JAS-2 31 Jul 13:29:31 13:33:20 17° 43° (NE) 13:37:35 435.910
BUGSAT 1 31 Jul 13:29:35 13:31:45 14° 273° (W) 13:33:46 437.445
CUBEBUG 1 31 Jul 13:35:20 13:39:38 65° 288° (WNW) 13:43:55 437.445
50 SAT 31 Jul 13:36:04 13:39:38 31° 294° (WNW) 13:43:08 437.505
HUMSAT D 31 Jul 13:36:42 13:39:54 20° 299° (WNW) 13:43:02 437.325/437.525
ITAMSAT 1 31 Jul 13:44:01 13:48:16 27° 59° (ENE) 13:52:37 435.822/435.867
DX 1 31 Jul 13:47:12 13:50:42 23° 299° (WNW) 13:54:06 434.975-435.025
VELOX 1 31 Jul 13:58:16 14:02:04 28° 296° (WNW) 14:05:49 145.980
Oscar 19 31 Jul 14:02:54 14:08:01 83° 254° (WSW) 14:13:13 437.125/150
ESTCUBE 1 31 Jul 14:06:35 14:10:37 32° 295° (WNW) 14:14:34 437.505/2401.250
SPROUT 31 Jul 14:14:22 14:18:41 78° 286° (WNW) 14:22:59 437.525
AO-7 31 Jul 14:17:10 14:23:51 29° 45° (NE) 14:30:41 29.400- 29.500
PCSat 31 Jul 14:20:07 14:23:35 17° 351° (N) 14:27:03 145.827
YUBILEINY 31 Jul 14:21:42 14:28:53 28° 280° (W) 14:35:50 435.215
TISAT 1 31 Jul 14:29:18 14:33:32 85° 286° (WNW) 14:37:46 437.305
BEESAT 31 Jul 14:44:10 14:48:16 28° 93° (E) 14:52:24 436.000
AIST 1 31 Jul 14:47:49 14:50:45 17° 298° (WNW) 14:53:32
Cosmos 2504 31 Jul 14:54:39 15:03:00 90° 268° (W) 15:11:39 435.465 / 435.565
Gurwin Techsat 1B 31 Jul 14:55:42 15:01:02 88° 250° (WSW) 15:06:25 435.225
AISAT 31 Jul 14:57:44 14:58:38 10° 308° (NW) 14:59:22 437.250
SO-50 31 Jul 14:58:46 15:02:13 18° 360° (N) 15:05:41 436.795
Cosmos 2491 31 Jul 15:01:17 15:09:32 42° 296° (WNW) 15:17:41 435.465 / 435.565
SWISSCUBE 31 Jul 15:04:21 15:08:57 45° 99° (E) 15:13:31 437.505
GONETS M04 31 Jul 15:09:40 15:13:21 13° 36° (NE) 15:17:25
JAS-2 31 Jul 15:10:48 15:16:55 56° 66° (ENE) 15:23:53 435.910
CUBEBUG 1 31 Jul 15:13:54 15:15:14 11° 307° (NW) 15:16:23 437.445
DANDE 31 Jul 15:21:26 15:24:07 22° 70° (ENE) 15:27:26 436.750
ITAMSAT 1 31 Jul 15:22:19 15:27:29 60° 259° (WSW) 15:32:40 435.822/435.867
ITUPSAT 1 31 Jul 15:24:54 15:29:40 61° 102° (ESE) 15:34:24 437.325
Oscar 19 31 Jul 15:45:34 15:48:18 14° 276° (W) 15:50:50 437.125/150
CUSAT 1 31 Jul 15:46:00 15:49:41 65° 76° (ENE) 15:54:33 437.405
KKS-1 31 Jul 15:48:05 15:51:33 22° 91° (E) 15:55:06 437.445
SPROUT 31 Jul 15:52:09 15:54:06 13° 305° (NW) 15:55:54 437.525
HORYU 2 31 Jul 15:57:09 16:01:28 52° 69° (ENE) 16:05:52 437.375
PCSat 31 Jul 16:05:18 16:09:04 19° 16° (NNE) 16:12:53 145.827
TISAT 1 31 Jul 16:06:35 16:08:42 13° 304° (NW) 16:10:41 437.305
AO-7 31 Jul 16:07:20 16:15:43 84° 68° (ENE) 16:24:09 29.400- 29.500
BEESAT 31 Jul 16:21:44 16:26:19 45° 293° (WNW) 16:30:51 436.000
MOZHAYETS 4 31 Jul 16:35:44 16:36:32 10° 82° (E) 16:37:37
Gurwin Techsat 1B 31 Jul 16:38:40 16:41:54 16° 275° (W) 16:44:56 435.225
SO-50 31 Jul 16:40:04 16:44:16 27° 23° (NNE) 16:48:30 436.795
SWISSCUBE 31 Jul 16:42:30 16:46:40 30° 298° (WNW) 16:50:45 437.505
CUTE-I 31 Jul 16:47:50 16:50:20 14° 49° (NE) 16:53:02 437.470
Cosmos 2504 31 Jul 16:47:53 16:54:21 25° 281° (W) 17:00:42 435.465 / 435.565
JAS-2 31 Jul 16:56:42 17:02:24 35° 270° (W) 17:08:44 435.910
STARS 31 Jul 16:58:47 17:03:11 62° 102° (ESE) 17:07:34 437.465
ITUPSAT 1 31 Jul 17:03:25 17:07:13 23° 301° (WNW) 17:10:54 437.325
DANDE 31 Jul 17:04:08 17:07:13 31° 262° (W) 17:11:05 436.750
GONETS M04 31 Jul 17:05:08 17:13:20 44° 65° (ENE) 17:21:36
Cosmos 2491 31 Jul 17:05:52 17:09:39 13° 325° (NW) 17:13:03 435.465 / 435.565
Cosmos 2499 31 Jul 17:17:33 17:23:02 19° 46° (NE) 17:28:58 435.465 / 435.565
KKS-1 31 Jul 17:24:09 17:28:30 51° 291° (WNW) 17:32:49 437.445
Cubesat XI-IV 31 Jul 17:29:22 17:33:40 26° 58° (ENE) 17:38:04 437.490
CUSAT 1 31 Jul 17:29:47 17:32:07 15° 267° (W) 17:34:36 437.405
HORYU 2 31 Jul 17:34:55 17:38:26 22° 269° (W) 17:41:55 437.375
PCSat 31 Jul 17:48:42 17:53:54 43° 41° (NE) 17:59:05 145.827
AO-7 31 Jul 18:02:32 18:09:34 28° 270° (W) 18:16:25 29.400- 29.500
MOZHAYETS 4 31 Jul 18:10:04 18:14:44 73° 103° (ESE) 18:19:21
SO-50 31 Jul 18:20:32 18:25:33 80° 46° (NE) 18:30:28 436.795
CUTE-I 31 Jul 18:24:14 18:29:30 61° 69° (ENE) 18:34:48 437.470
CUBESAT XI-V 31 Jul 18:26:59 18:29:02 13° 84° (E) 18:31:18 437.345
HO-68 31 Jul 18:31:23 18:35:26 17° 40° (NE) 18:39:41 435.675
STARS 31 Jul 18:35:58 18:39:16 20° 300° (WNW) 18:42:28 437.465
BRITE-PL 31 Jul 18:41:33 18:43:18 13° 57° (ENE) 18:45:11 437.365/2234.400
GOMX 1 31 Jul 18:56:20 18:57:09 11° 54° (NE) 18:58:08 467.674
GONETS M04 31 Jul 19:02:06 19:10:32 56° 269° (W) 19:18:56
Cubesat XI-IV 31 Jul 19:08:04 19:13:25 65° 257° (WSW) 19:18:47 437.490
Cosmos 2499 31 Jul 19:09:53 19:18:24 60° 72° (ENE) 19:27:12 435.465 / 435.565
SEEDS 31 Jul 19:30:34 19:31:16 10° 53° (NE) 19:32:08 437.485
CUTE 1.7 + AOD 2 31 Jul 19:31:18 19:33:07 13° 56° (NE) 19:35:06 437.475
PCSat 31 Jul 19:32:13 19:37:25 46° 242° (WSW) 19:42:32 145.827
CANX-2 31 Jul 19:38:45 19:41:18 16° 58° (ENE) 19:43:59 2200.000
PRISM 31 Jul 19:46:37 19:49:17 17° 89° (E) 19:52:02 437.425
MOZHAYETS 4 31 Jul 19:48:10 19:51:29 19° 301° (WNW) 19:54:41
AAUSAT CUBESAT 2 31 Jul 19:57:06 19:58:54 13° 56° (NE) 20:00:51 437.432
SO-50 31 Jul 20:01:51 20:05:38 21° 245° (WSW) 20:09:13 436.795
CUBESAT XI-V 31 Jul 20:02:37 20:07:17 89° 111° (ESE) 20:11:53 437.345
CUTE-I 31 Jul 20:05:37 20:10:01 25° 269° (W) 20:14:21 437.470
HO-68 31 Jul 20:14:54 20:21:46 53° 63° (ENE) 20:28:42 435.675
BRITE-PL 31 Jul 20:16:57 20:21:18 84° 77° (ENE) 20:25:30 437.365/2234.400
STRAND 1 31 Jul 20:19:39 20:24:32 43° 98° (E) 20:29:24 437.568
DOVE 4 31 Jul 20:21:41 20:25:30 37° 67° (ENE) 20:29:22 437.250
GOMX 1 31 Jul 20:30:26 20:34:36 70° 73° (ENE) 20:38:45 467.674
CINEMA 3 31 Jul 20:35:04 20:38:30 26° 63° (ENE) 20:42:04 145.822/145.860
ZACube-1 31 Jul 20:35:23 20:35:40 10° 52° (NE) 20:36:09 437.345
COMPASS 1 31 Jul 20:48:08 20:52:03 38° 67° (ENE) 20:56:01 437.405
Cubesat XI-IV 31 Jul 20:53:04 20:54:43 11° 279° (W) 20:56:04 437.490
FUNcube-1 31 Jul 20:55:03 20:57:21 15° 57° (ENE) 20:59:47 145.935
UWE-3 31 Jul 20:55:15 20:58:06 18° 59° (ENE) 21:01:07 435.000/436.395/437.385
VERMONT LUNAR 31 Jul 21:01:36 21:02:28 11° 173° (S) 21:03:22 437.305
GONETS M04 31 Jul 21:01:43 21:05:31 13° 291° (WNW) 21:08:48
SEEDS 31 Jul 21:02:03 21:06:15 62° 72° (ENE) 21:10:30 437.485
Cosmos 2499 31 Jul 21:03:25 21:11:23 41° 273° (W) 21:19:24 435.465 / 435.565
CUTE 1.7 + AOD 2 31 Jul 21:04:05 21:08:22 78° 74° (ENE) 21:12:42 437.475
Oscar 11 31 Jul 21:07:09 21:10:48 27° 64° (ENE) 21:14:32 145.826/435.025
CUBEBUG 2 31 Jul 21:08:56 21:12:30 28° 64° (ENE) 21:16:13 437.445
Cosmos 2491 31 Jul 21:11:51 21:14:52 12° 34° (NE) 21:18:17 435.465 / 435.565
CANX-2 31 Jul 21:12:24 21:16:42 80° 259° (WSW) 21:21:03 2200.000
DELFI C3 31 Jul 21:19:54 21:23:10 24° 64° (ENE) 21:26:31 145.870
PRISM 31 Jul 21:21:03 21:25:09 60° 289° (WNW) 21:29:12 437.425
HUMSAT D 31 Jul 21:24:10 21:26:03 13° 56° (NE) 21:28:05 437.325/437.525
AAUSAT CUBESAT 2 31 Jul 21:29:38 21:33:51 81° 75° (ENE) 21:38:06 437.432
DX 1 31 Jul 21:37:29 21:39:46 14° 56° (NE) 21:42:10 434.975-435.025
CUBESAT XI-V 31 Jul 21:41:17 21:44:07 16° 304° (WNW) 21:46:50 437.345
RS-15 31 Jul 21:46:32 21:55:55 36° 109° (ESE) 22:05:50 29.354- 29.394
VELOX 1 31 Jul 21:50:52 21:52:35 12° 54° (NE) 21:54:28 145.980
BRITE-PL 31 Jul 21:58:42 22:00:31 12° 274° (W) 22:02:10 437.365/2234.400
STRAND 1 31 Jul 21:59:05 22:03:40 33° 297° (WNW) 22:08:11 437.568
DOVE 4 31 Jul 21:59:53 22:03:26 26° 267° (W) 22:06:56 437.250
ESTCUBE 1 31 Jul 22:01:05 22:02:36 12° 53° (NE) 22:04:19 437.505/2401.250
HO-68 31 Jul 22:03:02 22:09:45 41° 264° (W) 22:16:26 435.675
ZACube-1 31 Jul 22:07:01 22:11:10 60° 72° (ENE) 22:15:27 437.345
GOMX 1 31 Jul 22:10:58 22:13:20 14° 273° (W) 22:15:33 467.674
CINEMA 3 31 Jul 22:11:37 22:15:34 41° 263° (W) 22:19:36 145.822/145.860
M-CUBED/EXP-1 PRIME 31 Jul 22:16:58 22:20:07 18° 93° (E) 22:23:21 437.505
COMPASS 1 31 Jul 22:24:09 22:27:49 27° 267° (W) 22:31:28 437.405
FUNcube-1 31 Jul 22:28:51 22:33:04 87° 255° (WSW) 22:37:26 145.935
UWE-3 31 Jul 22:30:00 22:34:12 67° 258° (WSW) 22:38:31 435.000/436.395/437.385
ISS 31 Jul 22:35:01 22:37:34 21° 146° (SE) 22:40:09 145.825
VERMONT LUNAR 31 Jul 22:37:52 22:38:21 10° 190° (S) 22:38:50 437.305
SEEDS 31 Jul 22:39:35 22:42:30 17° 272° (W) 22:45:18 437.485
CUTE 1.7 + AOD 2 31 Jul 22:42:32 22:44:54 14° 274° (W) 22:47:06 437.475
Oscar 11 31 Jul 22:42:42 22:46:51 42° 263° (W) 22:51:00 145.826/435.025
UKube-1 31 Jul 22:43:47 22:47:54 45° 68° (ENE) 22:52:04 .
PHONESAT 2.4 31 Jul 22:44:54 22:46:26 12° 171° (S) 22:48:01 2401.200-2431.200
CUBEBUG 2 31 Jul 22:45:07 22:49:05 39° 264° (W) 22:53:09 437.445
AISAT 31 Jul 22:45:25 22:49:21 34° 65° (ENE) 22:53:21 437.250
AUBIESAT-1 31 Jul 22:46:12 22:50:13 27° 98° (E) 22:54:13 437.475
50 SAT 31 Jul 22:50:17 22:53:52 36° 68° (ENE) 22:57:32 437.505
CANX-2 31 Jul 22:52:23 22:53:27 11° 277° (W) 22:54:17 2200.000
DELFI C3 31 Jul 22:54:10 22:58:03 42° 262° (W) 23:01:58 145.870
HUMSAT D 31 Jul 22:56:58 23:01:08 83° 76° (ENE) 23:05:23 437.325/437.525
CUBEBUG 1 31 Jul 23:01:02 23:04:43 28° 64° (ENE) 23:08:28 437.445
UNISAT 6 31 Jul 23:06:02 23:09:16 19° 88° (E) 23:12:40 437.425
Cosmos 2491 31 Jul 23:07:04 23:15:06 40° 63° (ENE) 23:23:13 435.465 / 435.565
AAUSAT CUBESAT 2 31 Jul 23:07:57 23:10:05 13° 275° (W) 23:12:03 437.432
AIST 1 31 Jul 23:09:56 23:13:44 30° 69° (ENE) 23:17:31
DX 1 31 Jul 23:11:03 23:15:25 87° 67° (ENE) 23:19:47 434.975-435.025
VELOX 1 31 Jul 23:24:02 23:28:25 72° 72° (ENE) 23:32:50 145.980
POPSAT HIP 1 31 Jul 23:25:01 23:25:35 10° 83° (E) 23:26:23 437.405
QB50P2 31 Jul 23:31:30 23:33:20 13° 85° (E) 23:35:21 145.880/145.840
ESTCUBE 1 31 Jul 23:34:12 23:38:42 65° 71° (ENE) 23:43:13 437.505/2401.250
YUBILEINY 31 Jul 23:38:42 23:44:19 20° 74° (ENE) 23:50:18 435.215
SPROUT 31 Jul 23:38:46 23:42:05 23° 62° (ENE) 23:45:27 437.525
ZACube-1 31 Jul 23:45:02 23:48:00 18° 272° (W) 23:50:54 437.345
TIGRISAT 31 Jul 23:48:48 23:53:13 41° 97° (E) 23:57:42 435.000
ANTELSAT 31 Jul 23:50:25 23:54:54 44° 98° (E) 23:59:26 437.575/2403.000
M-CUBED/EXP-1 PRIME 31 Jul 23:50:37 23:55:28 80° 292° (WNW) 00:00:15 437.505
TISAT 1 31 Jul 23:52:11 23:55:12 20° 61° (ENE) 23:58:20 437.305
DUCHIFAT 1 31 Jul 23:55:31 23:58:37 20° 91° (E) 00:01:49 145.980
RS-15 31 Jul 23:56:17 00:07:20 83° 315° (NW) 00:18:56 29.354- 29.394
QB50P1 31 Jul 23:58:23 00:01:41 22° 91° (E) 00:05:05 145.935-145.965
NANOSAT C BR1 31 Jul 23:59:44 00:03:04 22° 92° (E) 00:06:28 145.865
BEESAT 3 01 Aug 00:03:53 00:06:42 19° 116° (ESE) 00:09:37 437.485
FUNcube-1 01 Aug 00:08:41 00:10:12 11° 277° (W) 00:11:32 145.935
ISS 01 Aug 00:10:23 00:13:38 68° 164° (SSE) 00:16:53 145.825
AUBIESAT-1 01 Aug 00:20:30 00:25:09 52° 297° (WNW) 00:29:42 437.475
UKube-1 01 Aug 00:20:42 00:24:16 24° 267° (W) 00:27:46 .
BEESAT 01 Aug 00:21:47 00:23:22 12° 51° (NE) 00:25:08 436.000
AISAT 01 Aug 00:21:55 00:25:56 33° 264° (W) 00:29:56 437.250
PHONESAT 2.4 01 Aug 00:21:57 00:23:33 13° 188° (S) 00:25:08 2401.200-2431.200
50 SAT 01 Aug 00:25:17 00:28:33 25° 267° (W) 00:31:50 437.505
HUMSAT D 01 Aug 00:35:36 00:37:33 13° 275° (W) 00:39:20 437.325/437.525
CUBEBUG 1 01 Aug 00:36:51 00:40:58 40° 263° (W) 00:45:05 437.445
SWISSCUBE 01 Aug 00:40:35 00:43:36 17° 56° (NE) 00:46:45 437.505
POLYITAN 1 01 Aug 00:40:49 00:45:02 55° 100° (E) 00:49:16 437.675
UNISAT 6 01 Aug 00:41:53 00:46:32 67° 288° (WNW) 00:51:13 437.425
AIST 1 01 Aug 00:47:34 00:51:24 32° 269° (W) 00:55:12
DX 1 01 Aug 00:50:20 00:52:22 13° 274° (W) 00:54:14 434.975-435.025
AIST 2 01 Aug 00:55:33 00:57:23 13° 112° (ESE) 00:59:23 435.215
POPSAT HIP 1 01 Aug 00:58:00 01:02:16 79° 104° (ESE) 01:06:33 437.405
BEESAT 2 01 Aug 01:00:03 01:03:58 45° 124° (SE) 01:07:56 435.950
ITUPSAT 1 01 Aug 01:00:40 01:04:17 22° 59° (ENE) 01:08:02 437.325
VELOX 1 01 Aug 01:02:43 01:05:31 16° 272° (W) 01:08:11 145.980
BUGSAT 1 01 Aug 01:03:41 01:07:42 58° 101° (E) 01:11:45 437.445
Cosmos 2491 01 Aug 01:03:58 01:12:31 61° 268° (W) 01:21:00 435.465 / 435.565
QB50P2 01 Aug 01:05:36 01:09:54 85° 286° (WNW) 01:14:10 145.880/145.840
ESTCUBE 1 01 Aug 01:12:49 01:16:02 18° 271° (W) 01:19:09 437.505/2401.250
SPROUT 01 Aug 01:13:44 01:17:53 50° 260° (W) 01:22:05 437.525
TIGRISAT 01 Aug 01:25:45 01:29:52 31° 296° (WNW) 01:33:57 435.000
M-CUBED/EXP-1 PRIME 01 Aug 01:26:25 01:29:34 17° 311° (NW) 01:32:37 437.505
TISAT 1 01 Aug 01:26:32 01:30:39 56° 259° (W) 01:34:47 437.305
ANTELSAT 01 Aug 01:27:29 01:31:32 29° 296° (WNW) 01:35:34 437.575/2403.000
DUCHIFAT 1 01 Aug 01:30:36 01:34:45 53° 290° (WNW) 01:38:53 145.980
YUBILEINY 01 Aug 01:31:07 01:39:48 77° 96° (E) 01:48:35 435.215
QB50P1 01 Aug 01:33:43 01:37:49 48° 291° (WNW) 01:41:55 145.935-145.965
NANOSAT C BR1 01 Aug 01:35:03 01:39:09 47° 291° (WNW) 01:43:14 145.865
BEESAT 3 01 Aug 01:40:09 01:44:14 71° 314° (NW) 01:48:21 437.485
Cosmos 2504 01 Aug 01:45:15 01:48:03 13° 70° (ENE) 01:51:20 435.465 / 435.565
ISS 01 Aug 01:46:46 01:50:03 90° 344° (NNW) 01:53:20 145.825
BEESAT 01 Aug 01:55:37 02:00:20 59° 70° (ENE) 02:05:05 436.000
AUBIESAT-1 01 Aug 01:57:00 01:58:55 12° 316° (NW) 02:00:41 437.475
O/OREOS (USA 219) 01 Aug 02:00:08 02:03:43 24° 105° (ESE) 02:07:23 437.305
Oscar 19 01 Aug 02:09:23 02:13:29 24° 90° (E) 02:17:41 437.125/150
RS-15 01 Aug 02:10:45 02:21:26 46° 345° (NNW) 02:32:36 29.354- 29.394
SWISSCUBE 01 Aug 02:16:03 02:20:52 88° 254° (WSW) 02:25:44 437.505
POLYITAN 1 01 Aug 02:17:21 02:20:38 21° 299° (WNW) 02:23:49 437.675
UNISAT 6 01 Aug 02:20:28 02:22:33 13° 306° (NW) 02:24:29 437.425
STARS 01 Aug 02:26:25 02:29:11 17° 58° (ENE) 02:32:04 437.465
AIST 2 01 Aug 02:31:03 02:35:20 79° 128° (SE) 02:39:36 435.215
POPSAT HIP 1 01 Aug 02:35:00 02:37:39 16° 302° (WNW) 02:40:10 437.405
ITUPSAT 1 01 Aug 02:37:00 02:41:48 65° 258° (WSW) 02:46:38 437.325
BEESAT 2 01 Aug 02:38:19 02:42:08 35° 324° (NW) 02:45:57 435.950
BUGSAT 1 01 Aug 02:39:57 02:42:50 19° 299° (WNW) 02:45:39 437.445
QB50P2 01 Aug 02:42:59 02:45:11 14° 304° (NW) 02:47:14 145.880/145.840
